Location: Ladrillo (historical)
(32.8195°N, 117.2231°W)
Time: 21:52:51
(UTC+00:00)

Cosmos 2278 - Pass Details

Date: 29 October 2020
Orbit: 842 x 851 km, 71.1° (Epoch: 25 November)

Event Time Altitude Azimuth Distance (km) Brightness Sun altitude
Rises 13:25:22 0° 330° (NNW) 3,400 6.5 -8.9°
Reaches altitude 10° 13:27:57 10° 322° (NW) 2,461 5.7 -8.3°
Maximum altitude 13:33:08 39° 256° (WSW) 1,248 4.2 -7.3°
Drops below altitude 10° 13:38:18 10° 189° (S) 2,449 6.2 -6.2°
Sets 13:40:52 0° 181° (S) 3,381 7.0 -5.7°
